Regional Weather Roundup
Issued by NWS Wakefield, VA

Home | Current Version | Previous Version | Graphics & Text | Print | Product List | Glossary On
Versions: 1 2 3 4 5 6 7 8 9 10 11 12 13 14 15 16 17 18 19 20 21 22 23 24 25 26 27 28 29 30 31 32 33 34 35 36 37 38 39 40 41 42 43 44 45 46 47 48 49 50
000
ASUS41 KAKQ 250910
RWRAKQ

REGIONAL WEATHER ROUNDUP
NATIONAL WEATHER SERVICE WAKEFIELD VA
400 AM EST TUE NOV 25 2014

Note: "fair" indicates few or no clouds below 12,000 feet with no
significant weather and/or obstructions to visibility. * = Denotes
station may not report precipitation (e.g., rain,snow,etc.),
thunder or fog.

VAZ042-051-052>054-056-251000-
NORTHERN VIRGINIA

CITY           SKY/WX    TMP DP  RH WIND       PRES   REMARKS
WASH NATIONAL  CLOUDY    58  53  84 CALM      29.88R
DULLES         CLOUDY    56  40  55 NW16G23   29.90R
FORT BELVOIR   CLOUDY    56  54  94 NW1       29.88R
QUANTICO       CLOUDY    54  51  90 CALM      29.89R
FREDERICKSBRG* CLOUDY    63  59  86 SW7       29.88R
STAFFORD*      CLOUDY    61  57  87 CALM      29.92R
WARRENTON      FOG       51  51 100 CALM      29.88R VSB 3/4
CULPEPER*      CLOUDY    52  52 100 CALM      29.89R
MANASSAS*      CLOUDY    55  48  76 N10       29.91R
LEESBURG*      CLOUDY    55  43  62 NW14G23   29.91R
WINCHESTER     CLOUDY    52  32  46 NW15      29.92R
FRONT ROYAL*   CLOUDY    54  39  58 CALM      29.91R
LURAY*         CLOUDY    57  41  54 CALM      29.91R
$$

VAZ048-049-060>072-079>083-251000-
CENTRAL AND SOUTH CENTRAL VIRGINIA

CITY           SKY/WX    TMP DP  RH WIND       PRES   REMARKS
RICHMOND       CLOUDY    65  61  87 SW7       29.90R
CHESTERFIELD*  CLOUDY    64  54  68 SW6       29.91S
PETERSBURG*    LGT RAIN  65  62  91 S3        29.93R
HANOVER        CLOUDY    63  61  93 S7        29.91R
TAPPAHANNOCK*  CLOUDY    65  58  75 S8        29.91R
QUINTON*       CLOUDY    64  61  89 SE6       29.90S
CHARLOTTSVILLE CLOUDY    62  38  40 CALM      29.88R
GORDONSVILLE*  CLOUDY    53  52  97 CALM      29.88R
ORANGE*        CLOUDY    55  54  94 CALM      29.90R
LOUISA*        CLOUDY    59  55  88 CALM      29.88R
BUMPASS*       CLOUDY    58  57  96 CALM      29.89R
FARMVILLE*     CLOUDY    62  59  91 S6        29.90R
CREWE*         CLOUDY    65  60  86 SW5       29.90R
FORT PICKETT*  CLOUDY    63  61  96 S9        29.92R
CHASE CITY*    CLOUDY    64  64 100 CALM      29.92R
CLARKSVILLE*   CLOUDY   N/A N/A N/A S5        29.92R
SOUTH HILL*    CLOUDY    61  60  94 SW5       29.99R
LAWRENCEVILLE* CLOUDY    61  60  96 SW5       29.93R
$$

VAZ088>098-251000-
SOUTHEAST VIRGINIA

CITY           SKY/WX    TMP DP  RH WIND       PRES   REMARKS
NORFOLK        CLOUDY    71  55  56 SW12      29.93R
VIRGINIA BEACH CLOUDY    66  58  75 SW9       29.92S
NORFOLK NAVAL  CLOUDY    67  55  65 SW8       29.94R
WEST POINT*    CLOUDY    66  59  76 S8        29.93R
SALUDA*        FAIR      64  59  83 SW8       29.92R
NEWPORT NEWS   LGT RAIN  65  56  72 SW8       29.92R
LANGLEY AFB    CLOUDY    65  57  77 SW13      29.93R
FORT EUSTIS    CLOUDY    63  54  72 S3        29.91R
WILLIAMSBURG*  CLOUDY    66  61  82 W7        29.92F
HR EXEC AP*    CLOUDY    59  55  88 SW8       29.95F
FRANKLIN*      CLOUDY    63  57  82 SW8       29.93F
WAKEFIELD      CLOUDY    63  56  78 SW5       29.92S
$$

VAZ020-022-025-037-045-251000-
WEST CENTRAL AND SOUTHWEST VIRGINIA

CITY           SKY/WX    TMP DP  RH WIND       PRES   REMARKS
STAUNTON*      CLOUDY    54  38  56 N6        29.94R
WAYNESBORO*    CLOUDY    55  36  48 W6        29.91R
HOT SPRINGS VA CLOUDY    39  35  85 W14       29.93R
LYNCHBURG      CLOUDY    57  46  66 SW6       29.93R
DANVILLE       CLOUDY    63  58  83 W9        29.92S
SOUTH BOSTON*  CLOUDY    64  60  88 CALM      29.92R
MARTINSVILLE   MOCLDY    51  51 100 NW3       29.96R
ROANOKE        MOCLDY    54  37  52 NW15      29.96R
BLACKSBURG     CLOUDY    46  41  81 W9        30.00R
DUBLIN*        MOCLDY    47  38  72 W5        30.00R
MARION*        MOCLDY    47  35  62 W14G20    30.01F
HILLSVILLE*    MOCLDY    48  34  57 W10       29.98S
RICHLANDS*     CLOUDY    44  37  74 NW3       30.03S
WISE*          MOCLDY    39  30  70 W6        30.04S
ABINGDON*      CLOUDY    48  34  59 CALM      30.03S
$$

MDZ021>025-VAZ099-100-251000-
SOUTHERN MARYLAND AND THE DELMARVA PENINSULA

CITY           SKY/WX    TMP DP  RH WIND       PRES   REMARKS
PATUXENT RIVER CLOUDY    63  59  87 S7        29.88R
BAY BRIDGE APT   N/A     59  57  94 CALM      29.87R
LEONARDTOWN    CLOUDY    63  59  88 SW6       29.89R
DOVER          CLOUDY    62  60  92 SW10      29.85R
GEORGETOWN     CLOUDY    65  59  81 SW10      29.87S
EASTON         CLOUDY    62  62 100 SW6       29.90S
CAMBRIDGE      CLOUDY    63  59  88 S5        29.86F
SALISBURY      LGT RAIN  68  59  73 SW14      29.88
OCEAN CITY     CLOUDY    63  57  81 W9        29.88
WALLOPS ISLAND CLOUDY    66  56  70 SW10      29.89R
ACCOMACK*      LGT RAIN  64  54  68 SW9       29.92R
$$

NCZ012>017-030>032-251000-
NORTH CENTRAL AND EASTERN NORTH CAROLINA

CITY           SKY/WX    TMP DP  RH WIND       PRES   REMARKS
ROANOKE RAPIDS LGT RAIN  61  55  82 S6        29.94R
RALEIGH        CLOUDY    61  55  81 SW7       29.95F
ELIZABETH CITY CLOUDY    66  60  81 S7        29.95S
AHOSKIE*       CLOUDY    61  57  85 S3        29.95S
EDENTON*       CLOUDY    64  60  86 SW6       29.96F
CURRITUCK*     CLOUDY    65  60  82 SW3       29.96R
KILL DEVIL HLS CLOUDY    63  61  92 SW6       29.95S
MANTEO         CLOUDY    60  59  96 S10       29.96F
CAPE HATTERAS  CLOUDY    65  64  97 W12       29.98F
TARBORO*       LGT RAIN  64  58  83 S5        29.98R
GOLDSBORO      CLOUDY    64  63  97 CALM      29.94F
WASHINGTON     CLOUDY    65  60  86 SW5       29.98R
GREENVILLE     CLOUDY    64  61  88 SW5       29.98F
NEW BERN       LGT RAIN  67  62  84 S6        29.99R
WILMINGTON     CLOUDY    65  62  90 CALM      29.96F
$$

VAZ048-251000-
ELSEWHERE

CITY           SKY/WX    TMP DP  RH WIND       PRES   REMARKS
HARRISBURG PA  CLOUDY    54  36  50 NW12      29.88R
BALTIMORE      CLOUDY    57  53  86 W5        29.88R
ANNAPOLIS      CLOUDY    56  55  97 N3        29.86S
ANDREWS AFB    CLOUDY    61  59  94 W5        29.87R
PHILADELPHIA   CLOUDY    61  56  83 S8        29.87R
WILDWOOD NJ*   CLOUDY    63  55  77 SW12        N/A
HENDERSON NC   CLOUDY    61  58  90 S8        29.93F
GREENSBORO     CLOUDY    63  61  93 SW6       29.93S
ROCKY MOUNT    CLOUDY    62  57  83 S3        29.95R
$$

VAZ100-251000-
MARINE

STATION/POSITION TIME  TEMP    WIND        PRES    WAVE   SWELL
                       AIR SEA DIR/SP/G            HT/PER HT/PER
                 (UTC) (F)     (DEG/KT/KT) (MB)    (FT/S) (FT/S)
CAPE MAY NJ      0900   54 51  240/  4/  5 1010.9R
LEWES DE         0900   65 50  230/  6/ 10 1011.3R
15NM E FENWICK I 0900   57 54              1011.7R   7/ 9
OCEAN-CITY-INLET 0900   60 51  240/  8/ 11 1011.4F
WACHAPREAGUE VA  0900   58 55  220/  5/  6 1013.0R
THOMAS POINT MD  0900   53 48  180/  3/  4 1012.5R
GOOSES REEF MD   0900   53     170/ 10/ 12 1011.5S
COVE POINT MD    0900   63     200/  9/ 10 1011.5R
SOLOMONS ISLAND  0900      51                N/A
BISHOPS HEAD MD  0900   56 49  200/ 12/ 12 1011.3R
PINEY POINT MD   0900          220/ 12/ 13   N/A
POTOMAC MD       0900   58     230/ 10/ 12 1011.0R
CAMBRIDGE MD     0900   63 44  200/  5/  9 1010.7F
LEWISETTA VA     0900   64 50  210/ 12/ 16 1012.1R
RAPPAHANNOCK LGT 0900          190/ 14/ 15 1014.1R
STINGRAY PT      0900   58     230/ 10/ 12 1013.7R
YORK RVR RNG VA  0900   63     250/ 13/ 15 1012.5F
YORKTOWN VA      0900   65 51  230/  9/ 11 1012.6F
JAMESTOWN VA     0900   63     230/  8/ 12   N/A
DOMINION TERM VA 0900   60     220/  9/ 11 1013.3F
KIPTOPEKE VA     0900      56  220/  7/  9   N/A
CHES BAY BRIDGE  0900   64 52  200/ 14/ 16 1013.0R
CAPE HENRY VA    0900   65     210/  9/ 14 1012.5R
CHESAPEAKE LGHT  0800   65     230/ 17/ 17 1013.7R
WILLOUBY STN VA  0900   62     250/ 10/ 12 1011.8F
S CRANEY ISL VA  0900          200/  7/ 14 1013.1F
CAPE HENRY BUOY  0900      56                N/A     4/ 9   2/11
1ST LANDING BUOY 0900   60     230/ 10/ 10 1013.4R
CAPE CHARLES BUO 0900      55                N/A     4/ 9   3/ 9
64NM E OF VA BCH 0900   67 63  220/ 14/ 16 1013.8S   7/ 9   7/ 9
DUCK PIER NC     0900   63 58  210/ 10/ 12 1013.4F
44100 DUCK FRF   0900      59                N/A     5/ 9   2/11
44056 DUCK FRF   0900      58                N/A     4/ 9
OREGON INLET NC  0900   58 58  200/ 13/ 14 1014.4F
HATTERAS NC      0900   66 62  230/  8/ 12 1015.8F
DIAMOND SHLS NC  0900   74     220/ 14/ 16 1015.2F   6/ 8   5/ 8
CAPE LOOKOUT NC  0800   66     220/  9/ 12 1015.9R
$$



USA.gov is the U.S. government's official web portal to all federal, state and local government web resources and services.